Location: Unspecified
(22.6800°N, 112.2000°E)
Time: 06:56:01
(UTC+08:00)

Courier 1B Rocket - Pass Details

Date: 04 August 2021
Orbit: 920 x 1202 km, 28.3° (Epoch: 22 September)

Event Time Altitude Azimuth Distance (km) Brightness Sun altitude
Exits shadow 03:01:19 45° 37° (NE) 1,293 5.9 -36.7°
Drops below altitude 10° 03:06:12 10° 76° (ENE) 2,653 7.9 -36.0°
Sets 03:08:50 0° 81° (E) 3,575 8.6 -35.5°
